Cloud_Cover
100 100 100 98 11 17 100 100 100 100 100 100 100 100 26 100 100 95 100 100 100 88 66 84 100 100 85 92 75 81 33 41 14 38 37 43 10 17 100 40 74 54 100
91 98 100 100 100 98 9 82 100 100 100 100 100 100 89 3 56 100 100 100 100 53 65 100 100 100 89 99 79 76 63 44 78 52 78 64 89 5 51 69 17 78 100
72 100 100 100 100 100 6 5 20 100 100 100 100 100 100 73 81 69 51 100 86 99 31 99 100 85 99 100 100 100 100 88 100 100 96 100 32 63 59 20 58 97 85
100 100 100 100 100 100 87 7 100 100 100 100 38 100 100 100 99 69 79 100 100 100 100 100 100 100 100 100 100 100 100 100 60 74 19 32 5 92 39 32 68 19 100
100 100 100 100 100 100 100 79 98 65 98 100 100 50 100 100 100 83 100 100 100 100 100 100 100 100 100 100 100 99 100 100 100 100 100 100 90 92 99 100 100 96 30
100 100 100 100 100 100 99 6 5 30 62 69 96 99 100 93 100 100 100 100 100 100 100 100 84 82 92 100 98 53 100 98 83 97 100 100 57 13 41 100 59 18 66
58 100 100 100 100 40 7 5 4 5 7 100 52 100 100 100 100 100 100 100 100 95 76 100 100 50 10 5 25 15 5 32 47 19 100 100 90 56 5 19 97 100 100
100 80 100 100 100 99 93 70 2 5 96 100 94 100 100 100 100 100 100 100 100 100 100 100 99 44 6 20 11 5 5 5 5 86 100 100 100 100 100 95 95 100 100
100 100 100 100 100 100 100 100 100 100 100 100 100 100 100 100 100 100 99 100 100 100 100 100 100 92 99 100 9 50 22 11 77 33 66 61 100 100 100 100 100 100 100
100 100 100 100 100 100 100 100 100 100 100 100 100 99 100 100 100 95 97 47 100 100 100 100 100 100 100 100 100 22 49 36 37 75 85 77 95 100 100 100 100 100 100
100 88 100 100 100 100 100 100 92 29 78 100 100 100 100 100 100 100 100 100 100 100 100 99 87 100 100 100 100 100 100 89 78 100 100 100 95 100 100 100 100 100 100
15 100 100 100 100 100 100 100 100 100 100 98 100 100 100 100 100 100 100 100 100 100 100 100 100 100 100 100 100 100 100 100 95 100 100 100 100 100 100 100 100 100 100
100 98 100 100 91 74 99 100 100 100 100 100 99 99 100 100 100 100 100 100 100 100 100 100 100 100 100 100 100 100 100 100 100 100 100 100 100 100 100 100 100 100 100
100 99 20 26 100 99 50 75 100 100 100 100 100 100 100 89 64 79 100 100 100 100 100 100 100 100 100 100 100 100 100 100 100 100 100 100 100 100 100 100 100 100 100
100 100 100 50 59 100 100 100 90 100 100 100 100 100 100 100 100 99 24 68 98 100 100 100 100 100 100 100 100 100 100 100 100 100 100 100 100 100 100 100 100 100 100
100 86 58 97 82 52 100 100 100 100 100 100 100 100 100 100 100 100 100 100 84 93 100 100 100 100 100 100 100 100 100 100 100 100 100 100 100 100 100 100 100 100 100
16 99 95 68 100 100 97 100 100 100 100 100 100 100 100 100 100 100 100 100 100 100 100 100 100 100 100 100 100 100 100 100 100 100 100 100 100 100 100 100 100 100 100
28 52 25 16 5 88 98 100 99 100 100 100 100 100 100 100 100 100 100 100 100 100 100 100 100 100 100 100 100 100 100 100 100 100 100 100 100 100 100 100 100 100 100
76 99 52 93 100 100 100 100 92 99 95 100 100 100 100 100 100 100 100 100 100 100 100 100 100 100 100 100 100 100 100 100 100 100 100 100 100 100 100 100 100 100 100
91 70 98 100 100 100 92 72 5 91 87 100 80 100 100 100 100 100 100 100 100 100 100 100 100 100 100 100 100 100 100 100 100 100 100 100 100 100 100 100 100 100 100
100 18 51 56 1 5 5 5 5 1 47 100 47 34 97 99 100 100 100 100 100 100 100 100 100 100 100 100 100 100 100 100 100 100 100 100 100 100 100 100 100 100 100
100 100 80 16 6 100 100 96 50 5 36 79 44 4 4 42 93 100 100 100 100 100 100 100 100 100 100 100 100 100 100 100 100 100 100 100 100 100 100 100 100 100 100
5 3 0 0 2 5 18 11 5 94 17 99 9 5 1 0 6 100 100 100 100 100 100 100 100 100 100 100 100 100 100 100 100 100 100 100 100 100 100 100 100 100 100
5 5 5 5 1 0 0 1 5 5 24 4 5 3 0 1 100 100 100 100 100 100 100 100 100 100 100 100 100 100 100 100 100 100 100 100 100 100 100 100 100 100 100
5 14 17 15 5 5 3 4 5 4 5 5 5 5 59 29 94 100 100 100 100 100 100 100 100 100 100 100 100 100 100 100 100 100 100 100 100 100 100 100 100 100 100
5 49 87 100 94 87 51 60 66 10 5 5 5 5 85 98 100 100 100 100 100 100 100 100 100 100 100 100 100 100 100 100 100 100 100 100 100 100 100 100 100 100 100